Location: Les Thiberg�res
(47.8554°N, 1.0978°W)
Time: 16:53:49
(UTC+00:00)

COSMO-SKYMED 1 - Pass Details

Date: 17 February 2020
Orbit: 621 x 623 km, 97.9° (Epoch: 07 April)

Event Time Altitude Azimuth Distance (km) Brightness Sun altitude
Rises 05:36:37 0° 180° (S) 2,891 6.0 -16.0°
Reaches altitude 10° 05:38:51 10° 186° (S) 1,990 5.1 -15.6°
Maximum altitude 05:43:02 47° 261° (W) 829 2.8 -14.9°
Drops below altitude 10° 05:47:15 10° 336° (NNW) 2,006 4.9 -14.2°
Sets 05:49:32 0° 342° (NNW) 2,918 5.8 -13.8°
